Zurück zum Katalog

RADUGA 19

AktivMilitärGEO
NORAD 17046·PAYLOAD·🇷🇺 Russia

Gestartet Oct 25, 1986 von Baikonur Cosmodrome

Loading…

TLE

AktuellSource: Space-Track

Epoche: Sep 11, 2026, 14:52 UTC

1 17046U 86082A   26254.61966013 -.00000015  00000-0  00000+0 0  9999
2 17046  11.0362 324.8727 0010589 200.1910 302.9547  0.98458983143767

Verfolge RADUGA 19 in Echtzeit mit AllMySat

Download on the App Store